Bear River@Wheatland

Start Stop
DateFlow
CFS
Gauge
Feet
DateFlow
CFS
Gauge
Feet
12/12/2019 08:4515-0.09
12/12/2019 07:4515-0.09
12/12/2019 06:4515-0.09
12/12/2019 05:4515-0.09
12/12/2019 04:4515-0.09
12/12/2019 03:4515-0.09
12/12/2019 02:4516-0.08
12/12/2019 01:4515-0.09
12/12/2019 00:4516-0.08
12/11/2019 20:4516-0.08
12/11/2019 19:4515-0.09
12/11/2019 17:45 -0.09
12/11/2019 16:45 -0.1
12/11/2019 14:4515-0.1
12/11/2019 13:4514-0.11
12/11/2019 09:4514-0.11
12/11/2019 08:4515-0.1
12/11/2019 02:45 -0.1
12/11/2019 01:45 -0.09
12/10/2019 22:45 -0.09
12/10/2019 21:4515-0.1
12/10/2019 20:4514-0.11
12/10/2019 09:45 -0.11
12/10/2019 08:45 -0.12
12/10/2019 07:45 -0.12
12/10/2019 06:45 -0.11
12/10/2019 05:45 -0.11
12/10/2019 04:45 -0.12
12/10/2019 03:45 -0.11
12/10/2019 01:4514 
12/09/2019 06:45 -0.11
12/09/2019 05:45 -0.12
12/09/2019 04:45 -0.11
12/09/2019 01:4514 
12/09/2019 00:4514-0.11
12/08/2019 23:4515-0.1
12/08/2019 22:4514-0.11
12/08/2019 13:4514-0.11
12/08/2019 12:4515-0.1
12/08/2019 11:4514-0.11
12/08/2019 08:4514-0.11
12/08/2019 07:4515-0.1
12/08/2019 03:45 -0.1
12/08/2019 02:45 -0.09
12/08/2019 01:45 -0.09
12/08/2019 00:45 -0.1
12/07/2019 23:45 -0.09
12/07/2019 20:4515-0.09
12/07/2019 19:4516-0.08
12/07/2019 16:4516-0.08
12/07/2019 15:4515-0.09
12/07/2019 11:4515-0.09
12/07/2019 10:4516-0.08
12/07/2019 07:4516-0.08
12/07/2019 06:4515-0.09
12/07/2019 00:45 -0.09
12/06/2019 23:45 -0.1
12/06/2019 22:4515-0.1
12/06/2019 21:4514-0.11
12/06/2019 20:45 -0.12
12/06/2019 01:4514 
12/05/2019 23:45 -0.12
12/05/2019 22:45 -0.11
12/05/2019 20:45 -0.11
12/05/2019 19:45 -0.12
12/05/2019 18:45 -0.11
12/05/2019 17:45 -0.12
12/05/2019 16:45 -0.12
12/05/2019 15:45 -0.11
12/05/2019 11:45 -0.11
12/05/2019 10:45 -0.12
12/05/2019 09:45 -0.11
12/05/2019 08:45 -0.11
12/05/2019 07:45 -0.12
12/05/2019 06:45 -0.11
12/05/2019 01:4514 
12/04/2019 23:4514-0.11
12/04/2019 22:4515-0.1
12/04/2019 14:45 -0.1
12/04/2019 13:45 -0.09
12/04/2019 08:45 -0.09
12/04/2019 07:45 -0.1
12/04/2019 06:4515-0.1
12/04/2019 05:4514-0.11
12/03/2019 23:4514-0.11
12/03/2019 22:4515-0.1
12/03/2019 21:4514-0.11
12/03/2019 20:4515-0.1
12/03/2019 14:45 -0.1
12/03/2019 13:45 -0.09
12/03/2019 05:4515-0.09
12/03/2019 04:4516-0.08
12/03/2019 03:4516-0.08
12/03/2019 02:4517-0.07
12/03/2019 00:4517-0.07
12/02/2019 23:4518-0.06
12/02/2019 22:45 -0.06
12/02/2019 21:45 -0.05
12/02/2019 20:4518-0.05
12/02/2019 19:4519-0.04
12/02/2019 18:4519-0.04
12/02/2019 17:4520-0.03
12/02/2019 15:4520-0.03
12/02/2019 14:4521-0.02
12/02/2019 13:45 -0.02
12/02/2019 12:4521-0.01
12/02/2019 11:45220
12/01/2019 22:45220
12/01/2019 21:45230.01
12/01/2019 20:45240.02
12/01/2019 19:45 0.03
12/01/2019 18:45240.03
12/01/2019 17:45230.01
12/01/2019 16:45220
12/01/2019 15:45220
12/01/2019 14:4521-0.01
12/01/2019 13:4521-0.01
12/01/2019 12:4520-0.03
12/01/2019 09:4520-0.03
12/01/2019 08:4519-0.04
12/01/2019 06:4517-0.07
12/01/2019 05:4516-0.08
12/01/2019 03:4516-0.08
12/01/2019 02:4515-0.09
12/01/2019 01:4514-0.11
12/01/2019 00:45 -0.11
11/30/2019 22:45 -0.12
11/30/2019 21:4514-0.12
11/30/2019 20:4513-0.13
11/30/2019 19:4514-0.12
11/30/2019 18:4513-0.13
11/30/2019 07:4513-0.13
11/30/2019 06:4512-0.14
11/30/2019 05:4513-0.13
11/30/2019 04:4513-0.13
11/30/2019 03:4512-0.14
11/30/2019 02:4513-0.13
11/29/2019 17:4513-0.13
11/29/2019 16:4512-0.14
11/29/2019 15:4513-0.13
11/29/2019 00:4513-0.13
11/28/2019 23:4514-0.12
11/28/2019 22:4513-0.13
11/28/2019 19:4513-0.13
11/28/2019 18:4514-0.12
11/28/2019 13:45 -0.12
11/28/2019 12:45 -0.11
11/28/2019 07:45 -0.11
11/28/2019 06:45 -0.12
11/28/2019 05:4514-0.12
11/28/2019 04:4513-0.13
11/27/2019 23:4513-0.13
11/27/2019 22:4514-0.12
11/27/2019 21:4513-0.13
11/27/2019 20:4514-0.12
11/27/2019 19:4514-0.12
11/27/2019 18:4513-0.13
11/27/2019 17:4514-0.12
11/27/2019 13:45 -0.12
11/27/2019 12:45 -0.11
11/27/2019 11:45 -0.11
11/27/2019 10:45 -0.12
11/27/2019 09:45 -0.11
11/27/2019 03:4514-0.11
11/27/2019 02:4515-0.1
11/27/2019 01:45 -0.1
11/27/2019 00:45 -0.09
11/26/2019 22:4515-0.09
11/26/2019 21:4516-0.08
11/26/2019 18:4516-0.08
11/26/2019 17:4515-0.1
11/26/2019 16:45 -0.09
11/26/2019 15:45 -0.1
11/26/2019 12:4515-0.1
11/26/2019 11:4514-0.11
11/26/2019 10:4515-0.1
11/26/2019 09:4514-0.11
11/25/2019 21:4514-0.11
11/25/2019 20:4515-0.1
11/25/2019 14:45 -0.1
11/25/2019 13:45 -0.09
11/25/2019 11:45 -0.09
11/25/2019 10:45 -0.1
11/25/2019 06:4515-0.1
11/25/2019 05:4514-0.11
11/25/2019 04:4515-0.1
11/25/2019 01:4515 
11/24/2019 13:45 -0.1
11/24/2019 12:45 -0.09
11/24/2019 11:45 -0.1
11/24/2019 10:45 -0.1
11/24/2019 09:45 -0.09
11/24/2019 08:45 -0.1
11/24/2019 03:4515-0.1
11/24/2019 02:4514-0.11
11/24/2019 00:4514-0.11
11/23/2019 23:4515-0.1
11/23/2019 21:4515-0.1
11/23/2019 20:4514-0.11
11/23/2019 19:4514-0.11
11/23/2019 18:4515-0.1
11/23/2019 17:4514-0.11
11/23/2019 16:4515-0.1
11/23/2019 15:4514-0.11
11/23/2019 14:4515-0.1
11/23/2019 11:4515-0.1
11/23/2019 10:4514-0.11
11/23/2019 08:4514-0.11
11/23/2019 07:4515-0.1
11/23/2019 06:4514-0.11
11/22/2019 16:45 -0.11
11/22/2019 15:45 -0.12
11/22/2019 14:4514-0.12
11/22/2019 13:4513-0.13
11/22/2019 12:4513-0.13
11/22/2019 11:4514-0.12
11/22/2019 10:4513-0.13
11/22/2019 09:4514-0.12
11/22/2019 08:4514-0.12
11/22/2019 07:4513-0.13
11/22/2019 02:4513-0.13
11/22/2019 01:4512-0.14
11/22/2019 00:4513-0.13
11/21/2019 09:4513-0.13
11/21/2019 08:4512-0.14
11/21/2019 05:4512-0.14
11/21/2019 04:4513-0.13
11/21/2019 03:4512-0.14
11/21/2019 02:4513-0.13
11/21/2019 00:4513-0.13
11/20/2019 23:4514-0.12
11/20/2019 21:4514-0.12
11/20/2019 20:4513-0.13
11/20/2019 18:4513-0.13
11/20/2019 17:4512-0.14
11/20/2019 15:4512-0.14
11/20/2019 14:4513-0.13
11/20/2019 13:4512-0.14
11/20/2019 12:4514-0.12
11/20/2019 11:4512-0.14
11/20/2019 10:4513-0.13
11/19/2019 19:4513-0.13
11/19/2019 18:4514-0.12
11/19/2019 17:4513-0.13
11/19/2019 16:4513-0.13
11/19/2019 15:4514-0.12
11/19/2019 14:4513-0.13
11/19/2019 01:4513-0.13
11/18/2019 01:4513-0.13
11/17/2019 13:4513-0.13
11/17/2019 12:4514-0.12
11/17/2019 11:4513-0.13
11/17/2019 05:4513-0.13
11/17/2019 04:4512-0.14
11/17/2019 03:4513-0.13
11/16/2019 21:4513-0.13
11/16/2019 20:4514-0.12
11/16/2019 09:45 -0.12
11/16/2019 08:45 -0.11
11/16/2019 07:45 -0.12
11/16/2019 01:4514 
11/15/2019 22:45 -0.12
11/15/2019 21:45 -0.11
11/15/2019 17:4514-0.11
11/15/2019 16:4515-0.1
11/15/2019 15:45 -0.1
11/15/2019 14:45 -0.09
11/15/2019 04:45 -0.09
11/15/2019 03:45 -0.1
11/15/2019 02:45 -0.09
11/14/2019 22:4515-0.09
11/14/2019 21:4516-0.08
11/14/2019 20:4515-0.09
11/14/2019 17:45 -0.09
11/14/2019 16:45 -0.1
11/14/2019 15:4515-0.1
11/14/2019 14:4514-0.11
11/14/2019 13:4515-0.1
11/14/2019 12:4514-0.11
11/14/2019 01:4514 
11/13/2019 23:45 -0.11
11/13/2019 22:45 -0.12
11/13/2019 21:45 -0.11
11/13/2019 03:4514-0.11
11/13/2019 02:4515-0.1
11/13/2019 01:4514-0.11
11/13/2019 00:4515-0.1
11/12/2019 23:4514-0.11
11/12/2019 22:4515-0.1
11/12/2019 19:45 -0.1
11/12/2019 18:4515-0.09
11/12/2019 17:4516-0.08
11/12/2019 16:4517-0.07
11/12/2019 15:4518-0.06
11/12/2019 14:4519-0.04
11/12/2019 13:4519-0.04
11/12/2019 12:4517-0.07

Start Stop